Theta_e
326 325 320 326 319 318 315 312 298 298 288 287 286 286 289 294 295 292 294 295 294 297 300 299 298 300 298 296 298 300 301 299 300 292 294 308 317 320 318 321 320 323 327 333 337 336 337 343 350 351 351 350 348 349 348 349 349 349 350 349 349 347 347 348 348 346 345 345 346 346 346 346 345 345 344 344 344 344 344 344 347 347 344 343 344 345 346 345 345 345 344 345 346 346 347 348 349
323 320 319 321 318 317 309 303 293 290 286 285 288 288 292 292 291 292 293 295 296 299 297 298 298 299 301 299 298 301 300 303 308 308 312 318 317 316 318 319 319 325 332 335 338 338 338 338 346 349 350 350 348 349 348 347 347 349 350 350 349 349 349 347 348 347 346 346 347 346 345 346 345 346 346 345 345 345 344 345 347 346 344 344 344 344 345 344 344 345 344 344 345 346 347 349 349
321 320 320 318 316 313 309 302 295 285 284 282 286 289 292 291 291 292 294 296 298 298 297 297 299 299 296 298 298 297 293 305 306 308 309 315 310 313 317 319 321 323 330 334 336 338 339 340 344 346 345 346 346 347 346 346 347 346 346 345 348 350 349 349 349 347 347 347 346 346 347 346 346 346 345 346 346 346 345 344 346 346 345 345 345 345 345 345 345 345 344 344 343 345 346 346 349
320 320 318 312 310 306 300 296 290 285 286 283 286 289 291 290 291 293 295 297 297 296 298 298 298 300 299 295 296 301 300 301 305 308 308 308 308 315 315 319 322 321 322 327 331 333 335 338 341 342 340 339 339 340 341 342 343 344 344 346 346 345 345 347 348 348 348 348 346 347 348 347 346 346 346 346 345 345 345 346 346 346 345 345 346 347 347 346 347 345 345 345 344 343 345 344 346
318 320 320 310 305 301 297 295 287 283 284 283 284 289 292 291 294 294 297 296 296 296 296 296 296 301 302 300 300 294 297 302 307 308 310 310 313 314 315 317 315 314 315 316 320 322 324 333 339 340 339 340 340 340 340 341 341 341 341 343 344 346 345 344 346 347 348 348 348 346 347 347 347 347 346 346 345 345 345 345 345 347 347 346 346 347 347 348 348 348 348 347 346 345 346 345 344
313 314 316 311 305 306 296 286 289 286 287 287 287 289 291 291 294 294 296 297 298 296 296 296 295 296 297 299 301 297 303 298 305 307 308 307 311 312 312 311 309 309 310 311 313 315 318 326 327 329 334 338 339 340 340 341 341 340 340 341 342 345 344 344 345 345 345 346 347 346 345 345 347 346 346 346 346 346 345 345 346 347 347 347 346 346 346 347 347 348 348 348 348 348 348 347 346
313 305 307 302 303 301 292 286 286 286 292 290 291 291 291 292 294 295 296 297 299 296 297 300 301 299 295 299 299 301 302 305 304 306 309 309 308 307 307 305 305 305 306 307 309 311 317 323 325 327 327 329 332 337 339 339 339 339 340 340 341 341 343 343 344 344 344 344 344 346 345 344 345 345 344 345 346 346 346 346 345 346 347 347 348 347 347 347 347 347 347 347 348 347 347 347 347
313 305 302 295 294 293 289 287 288 285 292 292 293 292 292 295 293 294 294 294 295 294 296 298 297 294 293 299 292 299 301 302 305 308 306 305 306 305 305 304 303 303 304 305 306 309 320 321 322 324 326 328 329 330 333 335 337 338 338 339 340 340 339 339 340 342 342 343 344 344 344 344 344 345 345 345 343 344 345 345 344 345 346 347 347 347 347 347 347 347 347 347 347 346 347 346 346
309 306 302 296 291 290 287 287 290 290 293 293 294 294 301 295 295 293 292 295 295 293 294 298 298 293 293 294 294 298 299 301 303 306 304 303 304 305 304 303 302 302 303 303 304 305 309 318 318 320 322 324 327 328 329 331 331 333 334 336 338 339 339 338 337 337 337 338 339 341 342 342 343 343 343 343 343 343 345 345 344 345 344 342 346 347 347 348 348 348 347 347 346 347 346 345 345
305 302 296 294 290 288 286 288 286 290 291 292 292 296 296 296 294 292 293 294 294 295 295 296 297 294 294 292 293 295 296 300 302 301 302 302 302 303 303 302 302 302 302 302 302 302 306 316 316 316 318 320 322 324 325 325 327 330 332 333 335 336 337 338 338 338 338 338 338 339 339 340 340 341 342 343 342 342 342 344 345 345 344 344 343 344 346 347 348 348 348 347 347 347 345 345 345
297 298 299 290 287 285 286 287 288 291 292 292 293 295 295 295 293 292 293 293 294 295 295 297 294 292 293 292 292 300 299 298 300 298 300 301 302 301 300 302 302 301 300 302 302 301 301 305 313 314 314 316 318 319 321 322 323 325 326 328 330 332 332 334 337 338 339 339 338 338 339 339 339 339 340 341 341 342 343 343 343 343 344 344 343 344 343 345 346 348 347 347 347 347 346 345 345
295 294 292 286 288 287 287 287 289 290 291 291 295 294 295 294 293 293 293 293 293 293 293 295 293 294 291 290 291 295 296 296 297 300 300 301 299 300 300 300 301 301 301 300 301 300 300 301 304 310 312 313 313 315 317 319 320 321 321 324 326 327 329 330 331 332 334 336 338 338 339 339 339 339 339 339 340 341 341 341 344 342 341 343 344 344 343 343 344 346 346 347 347 347 346 345 345
296 293 289 287 288 289 287 287 288 290 287 291 293 298 295 294 293 292 291 291 291 292 292 294 298 293 289 290 294 295 294 295 296 299 299 298 299 299 299 299 300 300 300 301 299 300 300 299 301 303 307 310 310 312 313 316 317 318 319 320 322 323 323 324 326 328 330 332 333 334 336 336 336 337 338 338 338 339 339 342 343 343 341 343 344 344 342 341 342 344 345 346 346 346 346 345 345
299 297 291 291 289 288 286 287 288 288 289 293 292 295 296 294 295 292 292 291 291 291 295 295 295 295 291 290 290 290 293 295 295 297 297 297 298 298 299 298 299 298 299 299 298 298 299 299 299 301 301 300 300 305 310 312 315 316 314 316 318 320 320 320 322 323 325 327 329 330 331 331 332 333 335 336 337 336 336 337 339 341 342 341 342 343 342 341 341 341 344 345 345 345 346 345 345
298 296 290 290 287 286 289 288 289 285 289 292 295 296 295 296 292 293 294 291 291 294 295 297 296 293 288 287 288 292 295 295 296 298 297 297 297 297 298 297 298 298 297 297 298 298 298 298 298 299 301 299 299 300 301 303 312 315 312 313 315 316 316 317 318 319 322 324 326 326 327 326 326 327 328 330 332 332 333 332 333 336 340 342 342 341 341 341 341 340 343 344 344 344 345 345 344
300 295 292 291 288 286 289 287 287 287 291 292 294 293 294 295 294 293 293 294 293 295 295 291 294 291 291 290 290 292 295 297 297 298 295 295 296 296 296 296 296 297 297 296 296 297 297 297 297 297 300 299 298 299 300 300 306 312 310 311 312 314 314 314 315 316 317 318 320 321 321 322 323 325 324 325 326 330 329 327 328 334 337 339 341 341 340 340 340 340 342 344 344 343 344 344 342
300 296 291 287 289 287 289 290 286 288 291 292 293 294 292 291 294 293 294 294 291 290 292 292 291 294 291 292 293 293 295 298 299 295 294 293 293 293 294 295 295 295 297 296 296 296 297 296 297 297 297 298 298 298 300 300 302 310 306 308 310 311 312 312 312 312 312 313 316 317 318 322 324 325 326 327 323 326 323 323 326 332 334 336 337 339 341 340 339 339 341 343 343 343 340 338 336
297 292 287 288 290 288 291 289 289 291 291 293 293 293 292 291 292 293 294 291 291 290 290 291 293 292 293 293 294 294 295 293 293 292 291 291 292 291 292 292 293 293 294 295 295 296 296 296 296 296 296 298 297 298 300 299 299 304 299 299 301 304 307 308 304 305 310 309 312 311 314 318 321 323 325 324 326 326 326 324 325 329 333 334 334 337 339 340 339 338 339 342 341 340 337 337 334
294 289 289 290 287 293 292 292 291 291 293 293 292 292 291 292 292 292 290 288 289 288 288 289 289 290 291 291 291 291 292 291 291 291 290 290 290 290 290 291 291 292 293 294 294 295 294 295 295 296 295 297 296 296 298 298 297 299 298 298 300 304 302 302 301 304 305 304 303 306 310 314 317 320 322 323 324 322 323 322 324 328 331 331 332 333 336 337 338 339 340 340 339 336 336 336 334
298 292 288 288 290 293 293 293 294 294 293 292 293 293 292 294 293 293 290 288 288 287 286 286 287 287 288 289 290 290 290 290 291 290 289 289 289 289 289 290 290 290 291 293 294 296 294 293 294 295 295 296 295 295 297 296 296 297 297 297 298 298 299 300 300 303 303 301 301 304 308 310 313 315 318 319 319 324 325 323 324 324 325 326 326 328 331 333 336 336 336 336 334 332 335 334 333
297 290 289 293 292 291 294 293 294 294 292 292 291 292 291 294 293 293 290 289 288 287 289 288 287 287 288 289 289 289 289 289 289 290 289 289 290 291 289 290 290 290 291 293 293 293 293 293 293 293 294 295 294 294 295 295 296 296 296 296 297 297 298 298 299 301 300 300 300 304 306 305 307 309 313 317 319 321 322 323 325 326 328 329 326 329 330 331 331 331 333 331 333 334 333 333 331
294 293 291 292 292 291 293 293 293 292 292 290 290 291 293 294 292 292 292 288 287 289 291 289 290 289 289 288 288 288 288 288 288 288 288 289 289 288 288 288 290 289 291 290 291 291 292 292 292 292 293 293 293 293 294 295 295 295 295 295 296 295 297 297 298 299 299 299 301 303 302 301 302 303 307 314 315 315 316 318 322 325 325 326 328 328 329 329 330 330 330 330 331 332 332 331 330
292 288 291 292 292 293 292 292 292 291 291 290 291 294 291 289 289 290 290 289 289 291 291 290 290 290 290 289 288 288 288 287 288 288 289 289 290 290 289 288 288 289 289 289 290 290 293 291 291 292 292 293 292 293 293 292 292 294 294 295 295 294 295 296 297 298 298 299 300 302 300 299 299 300 304 307 306 306 308 311 314 317 320 323 325 327 327 327 327 328 328 329 329 329 329 329 329
293 291 290 295 294 294 293 293 291 289 290 293 293 292 291 291 289 290 287 289 290 291 291 290 290 290 289 288 288 288 288 287 288 289 289 289 290 291 291 290 288 288 288 288 289 290 291 291 291 290 291 292 291 292 291 291 291 293 293 295 293 294 295 293 294 296 298 298 300 301 301 299 298 298 301 300 300 303 305 307 310 314 317 319 322 324 325 327 326 327 327 327 328 328 327 328 328
294 292 293 293 294 294 292 290 290 291 292 290 289 291 291 291 290 288 287 289 290 290 290 289 289 288 287 287 287 287 287 287 288 289 290 289 290 291 290 290 289 288 288 288 289 289 290 292 290 290 291 291 291 291 290 290 291 292 291 291 291 296 292 292 293 294 295 296 299 300 299 298 298 298 298 298 299 300 301 304 308 312 315 317 318 320 323 324 326 326 327 327 327 327 326 326 326
294 295 293 292 294 293 293 291 291 291 293 290 291 288 289 289 291 287 288 288 289 289 289 288 287 287 286 287 287 287 287 287 288 288 289 289 290 288 288 287 288 287 288 288 288 288 289 290 289 290 291 292 291 290 290 290 291 291 291 291 291 293 291 292 292 292 293 294 295 297 298 298 298 298 297 297 297 298 300 303 306 309 311 314 315 316 318 321 323 326 326 326 326 326 325 325 325
294 293 293 293 293 293 294 293 293 291 292 291 290 287 288 290 289 284 288 289 289 288 287 286 287 286 287 287 287 286 286 286 287 289 287 288 288 287 287 286 286 287 287 288 288 288 291 288 288 289 290 292 291 290 290 290 291 290 291 291 291 291 291 292 292 292 292 293 293 294 296 297 298 298 297 297 297 297 298 301 304 305 307 310 312 313 315 318 321 323 324 325 325 325 325 326 325
294 293 292 290 290 291 292 291 291 292 293 290 289 289 289 290 291 287 289 289 289 287 286 286 286 286 286 286 286 287 286 286 286 287 287 286 287 286 285 285 286 286 286 287 287 288 288 288 288 289 290 290 291 290 290 290 290 290 291 291 290 291 292 291 291 291 292 292 293 293 295 296 297 297 297 297 296 296 298 300 302 303 304 307 309 311 313 315 317 320 322 324 324 324 325 326 326
294 292 291 288 287 290 292 292 292 292 292 291 292 288 287 288 289 289 290 290 288 286 286 286 285 286 286 286 286 285 285 285 285 286 288 287 287 287 285 285 286 285 286 287 287 287 286 287 289 289 289 289 289 289 290 290 290 290 290 290 291 292 291 291 290 291 291 291 292 293 293 294 295 296 296 296 296 296 297 298 299 301 303 305 307 310 312 314 315 316 319 322 323 323 323 324 325
293 291 288 289 285 286 289 292 291 292 292 292 292 285 283 289 290 289 290 289 287 286 285 285 285 285 285 284 285 285 285 285 284 286 286 286 286 286 285 285 288 285 287 286 286 286 288 290 291 291 290 289 290 290 291 290 290 290 291 290 291 291 290 290 290 290 291 291 291 292 292 293 294 295 295 295 296 296 296 297 298 300 302 304 305 309 310 309 309 309 311 316 318 320 321 322 323
289 290 287 284 286 284 289 291 291 291 293 293 291 286 284 284 287 289 289 289 287 285 285 285 285 284 284 284 284 285 285 284 285 285 287 286 285 285 285 285 285 285 286 285 285 286 286 287 291 289 290 289 289 289 290 290 290 290 290 290 290 290 290 290 290 290 290 291 291 291 292 293 293 294 294 294 295 295 295 296 297 299 301 303 305 306 305 303 304 305 308 310 316 320 321 321 322
288 287 283 282 284 282 288 290 290 290 291 290 290 285 285 286 288 289 289 288 287 285 285 285 284 284 283 283 283 284 284 285 286 286 285 285 285 285 285 285 285 285 285 285 285 287 286 287 289 288 289 289 289 290 289 289 289 290 290 292 290 290 289 289 289 290 290 290 290 290 291 292 293 293 294 295 294 294 294 295 297 299 300 302 303 302 301 301 303 304 306 309 311 315 318 319 321
284 287 282 284 283 282 286 291 289 290 292 292 291 285 283 286 287 289 288 287 286 285 285 284 284 284 284 283 283 283 283 283 285 285 285 285 284 284 285 285 285 285 285 285 284 285 286 287 288 288 288 288 288 288 289 289 289 289 289 289 289 289 288 289 289 290 290 290 290 290 291 291 292 292 293 294 293 293 294 295 297 298 300 301 301 299 299 301 302 304 306 307 310 313 317 318 319
280 283 285 282 283 283 282 284 287 290 290 288 289 286 286 284 288 288 288 287 285 285 284 284 284 283 283 283 283 282 282 282 283 283 284 285 285 285 285 288 286 284 285 284 284 285 286 287 287 289 288 288 288 288 288 289 289 289 288 288 289 288 288 288 288 289 288 289 289 289 289 290 290 291 292 293 293 294 294 295 296 298 299 300 299 298 299 300 302 304 304 307 309 311 314 317 317
282 282 282 284 282 282 284 284 285 291 290 288 287 285 287 285 287 288 288 287 285 285 285 284 282 282 282 282 282 282 282 282 283 283 284 285 285 286 285 284 284 284 283 283 284 285 286 286 287 287 288 287 288 288 288 288 288 288 287 287 286 287 287 287 287 286 286 286 287 287 287 287 288 288 290 292 292 293 294 294 295 297 298 298 298 297 298 299 300 302 302 302 304 307 312 316 318
285 284 283 281 281 283 282 285 285 289 287 287 286 287 288 285 286 287 287 286 285 285 283 282 282 281 282 282 282 282 282 282 284 284 284 284 284 285 284 284 283 283 283 284 285 285 285 286 287 287 287 287 287 287 287 287 286 285 284 285 284 285 284 285 285 285 285 285 285 285 285 286 287 288 289 291 292 292 293 293 294 296 297 297 297 296 297 297 297 298 299 300 301 304 308 314 318
286 285 283 283 282 284 285 286 287 288 287 286 287 287 286 285 286 287 288 285 284 283 283 282 281 281 281 281 282 282 282 282 284 285 284 284 285 284 284 283 283 282 283 283 283 284 285 285 286 285 286 286 286 285 285 285 283 283 283 283 282 283 283 283 283 283 283 284 284 285 285 286 285 285 286 286 288 291 292 293 294 295 297 297 296 296 297 297 297 297 299 300 301 302 305 310 316
286 284 282 283 282 283 287 287 287 286 286 282 283 284 285 287 286 287 286 284 283 283 283 282 281 281 281 281 281 281 282 283 284 283 284 283 283 283 282 282 284 282 282 283 283 284 284 285 285 285 285 285 285 285 285 284 283 283 282 282 282 282 281 281 281 282 282 284 284 284 285 284 284 284 284 284 285 286 288 291 293 294 296 296 296 297 297 297 297 297 298 298 301 302 303 308 312
285 283 282 281 283 283 286 286 286 287 286 284 283 283 285 286 286 286 285 285 286 285 285 283 282 281 281 281 281 281 281 282 282 282 283 282 282 282 281 282 282 282 282 281 282 283 284 284 284 284 285 285 285 285 284 283 283 283 282 282 282 281 282 282 282 282 283 283 283 283 284 284 284 283 283 284 285 286 287 289 291 294 295 296 295 295 295 295 295 296 297 297 298 301 302 304 307
283 283 282 282 283 282 281 283 283 285 285 282 282 284 285 286 287 286 286 286 284 284 284 282 282 281 281 281 281 281 281 281 281 281 281 281 281 281 281 281 281 282 281 281 283 283 284 284 283 284 284 284 284 284 285 283 283 283 283 282 282 281 280 282 282 282 282 282 281 283 283 283 283 283 283 284 285 285 286 287 290 292 293 294 295 295 295 294 295 295 296 297 299 298 299 299 304
282 284 282 282 283 283 282 282 283 283 284 284 283 283 283 285 286 287 283 283 282 283 282 281 281 282 282 282 282 281 281 281 280 280 281 281 281 281 281 281 281 281 281 281 282 282 284 282 283 283 283 283 283 284 282 282 282 281 281 281 281 281 281 280 280 279 280 281 281 281 281 282 282 282 283 283 283 283 284 285 287 289 292 293 295 295 295 295 295 295 296 297 298 299 298 299 301
280 282 286 286 285 284 283 281 282 279 279 281 281 278 275 278 283 285 281 280 281 281 281 280 281 281 280 280 281 281 282 281 281 281 281 281 280 280 280 280 280 280 281 282 282 283 282 282 282 283 283 283 282 282 282 282 281 280 279 278 277 277 277 277 276 277 278 278 278 280 281 281 281 281 282 282 283 284 284 285 286 287 290 293 294 295 295 295 295 295 295 297 298 300 299 298 298
282 284 284 286 284 283 282 281 282 276 275 282 282 277 277 278 280 282 280 280 281 279 280 280 280 280 280 280 281 281 281 280 280 280 280 280 280 280 279 279 280 280 281 282 282 282 282 282 282 282 282 282 283 282 281 281 280 279 278 278 278 277 276 277 278 279 278 279 279 279 280 280 280 281 281 282 282 282 283 284 285 286 288 291 294 294 295 295 295 294 295 297 298 300 300 298 298
281 283 281 282 282 283 281 282 282 279 280 281 281 279 276 277 280 282 282 280 280 279 279 280 280 280 280 280 280 280 280 280 281 280 280 279 279 279 279 280 280 280 281 282 282 282 281 281 281 281 282 282 281 281 281 280 279 279 278 277 278 277 277 276 277 278 279 279 278 278 279 279 280 281 281 281 281 281 282 283 284 286 287 288 291 293 294 295 294 295 295 297 299 300 300 299 298
282 284 282 284 282 282 281 281 280 279 278 277 279 280 276 275 277 279 280 278 278 278 279 279 280 280 279 280 280 280 280 280 280 280 280 279 279 279 279 279 280 280 281 281 281 281 281 281 281 281 281 280 280 280 281 279 279 279 278 277 276 277 277 277 278 278 278 278 277 278 278 278 279 280 280 280 280 281 281 282 284 284 284 286 288 291 293 295 295 294 294 295 296 298 299 300 299
285 283 283 282 283 282 282 279 279 277 274 275 279 279 273 277 278 276 278 278 279 279 280 280 280 280 279 280 280 280 280 279 279 280 280 280 279 279 279 280 280 280 281 282 281 281 280 280 280 280 279 280 280 279 279 278 278 279 277 277 276 276 276 276 276 276 276 277 276 276 277 278 278 279 279 279 279 280 280 281 281 281 282 285 287 289 292 295 295 294 294 295 296 295 297 298 299
284 282 283 280 279 279 279 278 276 271 269 277 280 279 279 275 277 278 276 278 281 282 281 281 280 279 279 280 280 280 280 280 279 279 279 279 279 279 279 279 280 280 280 280 280 279 280 280 279 279 279 279 279 279 278 278 278 278 277 276 276 275 275 275 275 275 275 275 275 276 276 276 277 277 278 278 279 279 279 280 280 280 282 284 285 288 290 292 294 295 295 296 296 295 295 296 297
284 282 280 280 280 275 273 268 273 269 270 274 276 278 279 271 276 278 282 278 280 283 281 281 280 279 279 279 280 279 279 279 280 279 279 279 279 279 279 279 279 280 279 279 278 279 279 279 278 278 278 278 278 278 278 278 277 277 277 276 276 276 275 275 274 274 275 274 275 274 275 276 276 276 277 277 277 278 278 278 279 279 280 282 283 285 287 290 293 295 296 296 295 296 296 295 296
282 279 276 276 272 271 270 269 269 268 273 275 274 276 275 276 282 279 281 282 279 281 283 282 281 280 279 279 279 279 279 279 279 279 279 279 279 279 278 279 279 279 279 278 278 278 278 278 278 277 277 277 277 277 277 277 277 276 276 276 276 276 276 275 274 274 275 274 274 274 274 274 274 274 275 275 276 277 277 277 277 278 279 281 282 283 286 289 292 294 295 295 296 295 295 295 295
280 281 275 273 270 266 269 269 266 267 274 275 275 277 274 281 281 284 286 285 283 281 283 283 282 280 280 280 279 279 279 279 279 279 278 278 279 278 279 279 279 279 278 278 278 278 277 278 277 277 277 277 277 277 277 276 276 276 276 276 276 275 275 275 275 274 274 274 274 274 274 274 273 274 274 274 276 276 276 276 277 278 279 279 281 283 285 287 290 293 294 295 295 295 295 295 295
281 280 281 279 273 273 275 269 273 279 277 274 275 271 270 271 277 277 276 276 278 281 280 280 280 280 280 279 278 279 278 278 278 278 278 279 279 278 279 279 279 278 278 278 277 277 277 277 277 277 276 277 276 276 276 276 276 275 275 276 275 275 275 275 275 275 274 274 274 273 274 274 273 273 273 274 275 275 275 276 276 277 278 279 281 282 284 286 289 293 294 294 294 293 293 294 295
280 278 279 276 278 279 277 271 269 270 271 271 269 274 275 279 277 277 276 276 277 277 277 278 278 278 278 278 278 278 278 278 278 278 278 278 278 278 279 279 278 277 277 277 277 277 277 277 276 276 276 276 276 276 275 275 275 275 275 274 274 275 275 275 274 275 274 274 274 273 273 273 273 273 273 274 274 275 275 275 276 276 278 280 280 280 282 284 288 290 292 292 292 294 293 293 294
279 279 276 278 280 282 278 272 272 272 271 273 273 274 278 279 279 275 277 276 276 276 276 277 278 278 277 277 278 278 278 278 278 278 278 278 278 278 278 278 277 277 276 277 277 277 276 276 276 276 275 275 275 275 275 275 274 274 274 274 274 274 273 273 273 273 273 274 274 273 273 273 273 273 273 273 273 274 274 274 275 276 278 279 279 279 281 284 288 290 291 291 291 292 292 292 293
279 274 278 280 281 281 276 274 273 273 271 275 273 276 279 276 279 274 275 275 275 275 275 276 277 277 276 278 277 278 278 278 278 279 278 278 278 279 278 277 277 277 276 276 276 276 276 276 275 275 275 274 274 274 274 274 273 273 273 273 273 273 273 273 273 273 273 273 273 273 272 272 272 272 273 273 273 273 273 274 274 276 277 277 278 279 281 284 287 289 290 291 291 291 291 292 293
279 278 282 280 276 275 275 273 271 270 272 273 277 276 278 280 281 273 273 274 275 275 275 275 276 276 277 277 277 278 278 278 278 278 278 278 278 277 277 276 276 276 276 276 276 276 275 275 275 275 274 274 274 274 274 274 273 273 273 273 273 273 273 273 273 273 273 272 272 272 272 272 272 272 272 272 272 272 272 273 274 274 275 276 277 278 279 281 283 286 289 290 291 291 291 291 292
281 281 279 282 279 278 273 277 276 277 274 275 277 277 279 281 281 278 277 275 277 275 275 275 277 277 277 277 277 277 277 278 278 278 278 278 277 276 276 275 276 276 275 275 275 275 275 275 275 274 275 274 274 273 273 273 273 273 272 272 272 272 273 272 273 273 272 272 272 272 272 271 271 272 271 271 271 271 272 272 273 274 274 275 276 277 279 280 282 285 288 289 290 290 290 290 291
277 277 275 276 277 280 280 278 276 277 274 275 275 274 281 280 284 281 280 278 278 276 276 277 277 277 277 277 278 278 278 278 278 278 278 277 276 276 276 275 275 275 275 275 274 274 274 274 274 274 273 273 273 273 272 272 272 272 272 271 271 271 271 272 272 272 272 272 272 272 272 271 271 271 271 271 270 271 271 272 272 273 274 274 276 277 278 279 280 283 286 288 289 289 289 290 290
279 279 278 280 277 275 275 275 278 277 277 274 274 275 283 282 280 283 282 280 279 278 278 278 277 277 277 278 278 278 278 277 277 277 276 276 275 275 275 275 275 275 274 274 274 274 274 273 273 273 273 272 272 272 272 272 272 272 271 271 271 271 271 271 271 271 271 271 271 271 271 271 270 271 271 270 270 271 271 272 272 273 274 275 275 276 277 278 280 282 285 288 288 288 288 289 289
Wind_Speed
5 4 2 1 2 4 3 3 1 2 6 1 3 4 1 0 0 2 2 1 1 2 1 1 1 4 6 8 13 10 8 5 2 6 2 2 3 7 10 8 10 10 8 7 5 4 4 5 5 6 8 7 7 8 7 5 4 4 4 5 6 5 9 9 9 4 6 10 11 9 9 10 9 9 9 9 9 9 9 10 7 6 7 9 10 12 12 12 11 11 10 10 10 10 10 9 9
3 3 1 2 1 2 1 2 3 2 6 4 1 1 0 2 2 4 3 3 1 1 1 2 8 11 17 12 6 17 13 7 4 6 3 2 5 6 9 9 7 10 9 9 9 7 7 8 12 12 13 14 11 9 9 10 10 6 5 6 6 6 7 8 9 5 7 9 10 8 9 12 12 10 11 10 10 10 11 9 7 8 10 11 13 12 12 12 12 12 11 10 11 10 10 8 8
3 4 3 3 3 2 0 2 0 2 5 3 1 2 1 1 4 2 3 3 3 2 1 5 6 5 4 6 15 11 3 8 7 2 4 4 4 8 9 8 7 9 10 8 8 8 7 8 12 14 16 16 16 16 14 13 13 13 13 12 9 7 8 9 9 9 9 10 11 10 11 11 12 12 12 12 12 12 12 10 9 9 12 13 13 13 13 12 13 13 12 11 11 10 10 10 9
1 1 1 2 1 3 1 3 5 6 6 6 0 2 0 2 3 4 3 1 1 2 1 4 8 5 8 10 4 7 4 4 5 2 2 7 4 7 7 9 9 10 12 10 9 9 7 9 12 13 15 16 17 17 18 16 15 14 13 14 13 13 14 12 9 9 10 12 11 12 12 12 13 12 13 14 13 13 13 12 10 11 13 13 14 13 13 14 13 13 13 12 11 10 10 11 11
1 2 0 2 3 2 1 1 4 3 4 5 4 3 2 3 2 3 1 2 2 5 3 6 6 4 9 7 4 3 4 4 7 7 3 4 9 6 7 8 10 12 12 12 12 11 12 20 16 15 16 16 16 15 15 16 17 17 16 14 14 15 9 14 14 12 11 13 13 13 14 14 13 14 14 14 14 14 13 13 14 8 7 10 13 14 13 14 14 14 14 14 13 12 10 11 12
1 3 2 2 0 2 5 3 4 2 3 5 3 2 3 5 3 5 2 0 0 5 5 6 4 3 5 5 5 5 6 3 3 5 2 6 5 7 8 8 11 14 12 11 11 11 13 22 23 23 21 19 18 16 15 16 17 18 17 17 17 15 15 15 15 15 16 16 14 16 15 15 15 15 14 14 14 14 14 15 13 12 11 10 11 14 15 15 15 15 15 16 15 14 10 11 11
1 3 2 4 2 4 4 5 4 3 1 5 5 2 5 3 3 7 4 0 1 10 7 10 13 11 9 1 6 7 6 5 3 3 4 1 7 10 8 10 12 14 13 11 10 11 15 22 23 23 23 23 21 19 18 18 18 18 18 18 18 18 16 14 14 15 17 17 17 16 17 17 16 16 16 15 14 14 14 15 16 14 13 12 11 13 15 16 16 16 15 15 15 16 14 11 10
1 0 1 2 1 3 3 3 4 2 1 3 4 5 4 1 4 3 1 2 1 3 4 7 9 16 6 5 7 4 7 6 3 2 4 6 7 10 11 11 14 13 12 12 10 10 13 22 24 24 24 23 23 22 21 20 19 19 18 18 18 18 18 17 16 16 15 17 18 19 20 19 19 18 17 15 17 15 16 14 14 16 16 15 14 13 14 15 16 17 16 16 15 14 12 13 13
2 2 1 5 3 3 3 2 1 2 0 0 1 5 4 2 2 4 4 1 2 5 6 8 4 12 2 8 8 2 5 6 6 6 8 7 9 8 10 13 12 11 12 12 11 9 10 19 23 24 24 24 23 24 24 23 22 21 21 19 18 19 19 18 18 17 17 16 17 17 17 19 18 19 20 18 16 17 15 14 15 15 14 17 18 16 16 15 16 16 17 17 16 13 12 13 14
1 2 2 2 3 4 3 1 5 2 2 2 2 0 1 0 3 4 7 5 7 11 5 6 5 13 7 9 3 7 3 8 4 8 6 7 5 8 12 11 10 9 10 10 10 9 9 13 19 23 23 23 23 24 24 24 24 23 22 22 21 20 20 20 19 18 18 17 17 18 18 17 18 18 19 19 19 19 18 17 16 14 14 15 18 20 18 17 16 16 16 16 16 14 12 13 13
1 4 2 3 5 3 2 1 1 2 1 2 2 2 2 1 5 3 2 3 2 7 7 10 10 8 6 5 5 0 3 5 6 5 5 4 6 9 10 8 8 9 10 9 8 9 9 8 14 18 20 21 22 23 23 23 24 24 24 24 23 22 21 21 21 21 20 19 19 18 18 18 18 18 17 19 21 19 18 16 16 18 17 16 18 18 20 20 17 17 16 15 15 13 11 13 13
1 2 3 3 2 3 2 7 3 2 2 2 0 3 1 4 3 4 2 7 2 6 4 1 5 7 9 2 4 4 5 8 4 3 3 4 7 6 8 7 9 9 8 8 7 9 10 8 8 12 17 19 19 19 21 22 24 24 24 24 24 24 23 22 21 21 20 21 20 20 20 19 18 18 18 18 19 20 19 20 17 18 20 18 17 19 18 19 19 17 16 14 13 12 12 12 12
4 1 4 5 1 1 1 6 4 1 1 1 2 0 0 5 3 6 4 5 3 6 4 6 16 3 3 2 1 2 7 5 4 2 3 4 5 5 5 7 8 9 9 9 10 9 8 9 9 8 11 14 14 15 16 18 20 22 23 24 24 23 24 24 23 22 20 20 20 19 19 18 17 17 18 18 18 18 20 21 20 20 21 19 18 18 19 19 20 18 15 14 14 13 13 13 13
2 2 3 0 0 2 5 2 1 2 1 0 2 1 0 1 1 5 7 8 7 5 0 3 5 13 6 3 2 4 3 4 3 4 3 5 5 6 7 5 6 8 8 9 10 9 9 9 10 8 8 10 11 11 12 16 17 20 22 22 22 22 23 24 23 23 22 19 18 18 17 17 16 16 17 18 18 18 18 19 21 24 22 20 20 17 17 19 21 20 15 14 15 15 13 14 15
0 2 3 3 1 2 0 5 6 4 2 0 1 1 2 3 5 3 9 10 4 3 2 7 1 3 7 7 2 1 0 3 3 3 4 5 7 7 7 6 5 6 8 9 8 9 10 8 10 10 9 11 12 10 9 11 15 16 20 21 21 22 22 23 22 23 21 18 16 16 16 17 16 15 14 14 16 17 18 18 18 21 23 24 22 20 18 20 20 20 16 16 15 16 15 15 16
3 4 3 2 1 3 0 3 1 4 1 1 2 2 8 8 3 3 4 2 3 5 4 3 5 2 3 8 6 4 1 1 2 1 3 7 5 6 6 7 6 6 6 7 8 7 7 8 7 9 9 10 11 11 11 12 12 17 16 18 19 20 21 21 22 20 18 18 18 19 17 14 12 11 14 12 13 15 17 16 17 20 22 25 24 23 22 21 20 20 18 17 17 16 17 16 15
2 3 3 3 1 2 1 1 3 2 1 1 3 0 3 4 4 7 4 4 12 5 14 5 5 4 9 6 7 4 2 0 1 2 9 9 7 8 7 7 7 5 6 7 7 8 7 7 8 8 7 8 10 10 10 11 12 15 12 13 15 17 17 18 18 16 16 14 16 17 17 12 9 9 10 10 13 10 13 16 17 20 20 21 24 23 22 21 24 22 20 17 18 18 17 17 16
2 2 4 3 1 3 2 3 5 2 3 1 1 0 8 8 3 6 7 15 13 9 14 7 11 9 6 5 4 4 2 3 3 12 9 9 6 8 9 8 8 8 7 7 8 9 10 9 8 8 8 9 10 8 7 7 9 10 11 12 12 15 12 16 14 12 12 10 14 13 11 10 10 9 9 10 9 11 12 16 17 19 19 19 20 22 21 22 25 24 22 19 19 18 18 12 10
3 2 3 1 3 0 1 2 3 3 2 2 1 1 2 5 10 3 8 2 10 12 7 5 10 7 6 5 4 4 3 5 8 10 11 9 8 8 7 7 8 8 9 7 7 8 8 8 7 8 9 8 10 8 7 8 9 8 9 10 9 11 13 13 13 13 11 12 12 11 9 9 10 11 11 12 11 15 14 17 18 19 20 20 20 21 23 24 23 22 21 19 18 19 14 10 8
0 2 2 0 4 1 1 2 2 3 6 3 2 1 2 1 4 3 7 9 4 14 10 2 6 8 5 4 4 3 4 6 7 8 8 7 5 4 5 5 6 5 6 6 6 5 6 8 7 5 6 7 8 8 7 7 7 7 7 8 9 9 10 10 11 11 11 13 13 10 9 10 10 10 13 17 13 10 11 14 16 16 18 20 23 19 20 21 24 23 21 21 16 11 9 9 8
1 2 1 1 5 4 1 2 3 1 4 3 3 0 3 3 1 5 13 10 1 4 9 15 14 12 9 6 4 4 6 7 5 5 6 5 3 3 3 2 2 3 4 4 4 5 5 7 6 6 5 5 6 6 6 7 7 7 6 6 7 7 8 9 9 10 11 12 13 11 12 10 9 9 10 10 9 10 10 11 11 11 9 11 14 12 12 12 13 12 12 14 11 11 10 10 9
1 1 1 2 1 3 4 4 4 3 2 6 1 4 1 0 5 10 14 9 8 11 9 5 15 13 11 9 5 5 6 7 6 5 4 3 4 3 3 2 2 2 3 5 6 5 6 6 6 5 5 5 6 6 6 6 7 6 6 6 6 6 6 7 7 8 9 11 10 10 11 12 12 10 9 9 9 11 12 11 11 11 12 12 11 10 11 11 11 11 11 12 11 10 11 11 11
1 2 1 1 1 3 4 3 4 4 1 3 1 1 2 3 2 0 0 4 4 5 9 11 11 10 9 7 6 6 6 6 6 5 4 3 1 0 1 2 3 5 4 4 4 4 5 5 6 6 5 4 6 6 6 6 6 6 6 6 7 7 6 6 6 8 8 8 9 9 10 10 11 11 11 10 10 9 10 10 11 10 11 11 10 11 12 11 11 11 11 12 11 11 12 11 11
3 2 1 1 1 2 6 4 6 4 9 2 1 2 4 6 4 0 3 3 8 9 9 10 9 8 6 8 5 8 7 6 5 4 4 4 1 1 1 1 3 2 2 4 4 4 4 6 5 5 5 4 5 5 5 6 5 5 5 5 6 6 6 6 6 7 7 7 8 8 8 9 9 10 11 12 11 9 9 10 10 11 10 10 10 11 12 11 10 11 11 12 12 12 12 12 11
1 1 0 3 0 1 2 4 4 5 2 1 6 4 4 5 6 4 4 7 9 9 9 9 9 7 6 7 7 6 6 4 4 3 1 0 1 1 1 1 2 2 4 5 5 5 5 5 5 6 5 5 6 6 6 6 6 6 5 6 7 7 6 7 8 8 7 6 6 6 7 9 9 9 10 9 11 12 11 9 10 10 11 10 11 11 11 12 11 11 12 13 12 12 12 12 11
3 1 0 1 1 3 0 3 1 4 1 2 6 4 1 6 9 4 6 7 7 9 9 8 8 8 7 8 7 6 6 5 3 3 2 0 1 4 5 4 3 5 4 4 5 5 5 6 6 6 5 6 6 6 6 7 7 7 7 8 8 8 8 9 9 8 8 8 7 6 7 7 8 9 9 9 10 11 11 12 10 10 11 10 10 11 11 11 12 11 10 11 12 12 12 13 11
2 1 0 0 3 2 1 3 2 2 1 2 4 4 4 5 6 2 4 6 8 9 9 6 8 9 7 7 6 5 6 5 4 2 2 1 3 5 5 4 4 4 4 5 5 5 5 5 5 6 5 5 6 6 7 7 7 7 7 7 6 7 8 8 8 8 8 8 9 9 8 7 8 8 9 9 8 10 10 10 11 10 10 10 10 11 11 12 12 12 12 11 10 11 12 11 11
1 0 3 4 6 3 1 1 3 1 1 4 8 6 7 6 0 8 14 10 9 11 8 7 6 7 7 7 6 4 5 4 3 3 4 3 4 3 4 3 4 4 4 5 4 4 5 5 5 5 5 6 6 6 6 7 8 8 8 8 8 9 9 9 9 9 9 9 9 9 8 8 8 9 9 10 9 10 9 10 10 10 11 9 10 10 12 12 13 13 15 15 14 11 10 11 12
1 1 2 4 5 2 1 4 2 2 1 5 3 5 3 3 7 5 15 12 9 9 9 7 7 6 6 6 5 4 5 4 2 3 1 1 1 2 4 3 3 4 4 4 5 5 5 5 4 5 5 5 6 7 8 8 8 9 9 9 9 9 10 10 10 10 10 9 9 10 10 9 9 9 9 11 11 9 9 10 10 10 9 11 10 11 13 12 12 13 14 14 14 12 12 12 11
2 2 2 2 4 5 4 0 1 3 2 2 3 7 6 13 5 11 14 15 10 9 9 8 6 6 5 5 5 4 4 3 2 2 1 1 2 2 4 4 4 3 4 4 4 5 4 3 3 4 5 7 7 8 9 9 10 10 10 10 10 11 11 12 12 11 11 11 11 12 11 11 9 9 10 11 10 9 10 11 11 10 9 10 11 10 10 10 12 14 15 14 14 13 13 13 12
1 1 3 0 0 3 2 1 1 3 1 2 2 7 8 6 2 11 14 14 16 13 10 9 7 6 5 4 5 5 4 3 4 2 2 2 2 2 3 3 4 3 3 4 4 5 4 5 4 4 6 8 9 11 13 12 11 11 11 11 12 13 13 13 13 13 13 13 14 14 13 12 12 11 12 12 11 10 11 11 11 10 9 9 10 10 9 10 10 13 13 14 15 15 13 14 14
1 2 2 2 2 5 8 1 4 6 1 2 4 5 10 8 5 10 12 11 11 13 10 9 8 7 6 5 5 5 5 4 2 2 3 3 3 2 2 3 3 3 3 4 4 4 5 5 6 7 9 12 12 12 12 12 12 11 11 11 11 12 11 11 11 11 12 12 12 13 13 13 12 13 13 12 12 12 12 12 11 10 10 9 8 9 9 10 11 11 13 13 15 16 15 14 12
4 1 3 2 1 5 7 1 2 6 1 1 7 8 2 3 5 8 7 11 9 11 9 9 9 8 7 5 5 5 4 3 2 2 2 4 3 3 1 2 3 3 4 4 5 4 5 7 8 12 14 14 13 14 14 13 12 12 11 10 11 12 11 11 11 11 12 11 11 12 12 12 13 14 13 12 12 13 12 12 11 12 10 10 9 7 9 9 10 11 13 13 14 16 17 16 15
3 2 2 3 3 2 3 6 2 1 2 4 1 5 7 1 8 10 8 10 9 11 11 10 9 7 7 6 6 6 5 5 4 4 3 2 4 2 1 2 2 3 3 4 4 4 6 7 10 10 10 10 11 12 12 12 11 11 10 11 11 11 11 9 11 12 13 13 13 14 17 18 17 17 16 14 12 13 12 13 13 12 11 10 9 8 8 9 10 10 13 13 13 15 16 18 14
4 5 5 7 2 4 7 2 2 1 0 5 2 5 11 4 7 11 12 10 10 11 12 11 9 8 8 7 6 6 6 5 6 4 4 3 3 1 0 1 2 3 3 4 5 5 7 9 9 10 10 11 11 12 12 11 11 9 9 10 11 11 11 11 12 13 12 13 13 15 17 16 17 18 17 16 14 13 12 12 12 12 11 10 9 9 9 8 10 10 12 15 15 15 17 18 16
6 5 6 3 5 7 5 5 3 4 5 7 7 10 11 5 8 9 7 10 11 8 6 6 7 7 8 8 7 6 5 6 6 6 4 3 3 1 1 2 4 4 4 4 5 6 7 8 9 10 10 11 10 9 10 10 10 10 12 12 11 9 10 10 9 9 10 11 13 15 15 15 14 15 16 17 15 14 13 12 13 12 11 10 10 10 9 9 9 12 13 14 17 17 15 15 14
3 1 2 8 6 10 4 3 5 2 1 9 10 9 8 7 9 13 13 8 6 8 10 9 8 8 8 8 8 8 6 6 6 8 5 3 2 1 1 3 4 4 4 4 4 6 8 10 11 11 9 9 8 9 9 10 11 12 9 9 11 9 10 11 9 9 10 10 13 13 14 12 15 18 17 18 19 17 14 13 13 12 11 10 10 10 10 10 9 9 11 11 14 17 15 15 15
3 3 3 8 4 10 7 2 1 0 3 4 2 5 10 11 7 9 7 9 12 13 13 12 11 9 9 10 9 8 8 2 2 4 3 0 2 2 4 4 3 4 4 5 7 8 7 8 8 8 6 7 8 9 9 9 8 8 11 12 12 13 11 11 13 11 12 11 10 11 12 14 15 15 16 19 18 18 17 16 14 13 12 10 10 10 9 8 8 8 9 12 10 13 15 13 14
1 3 2 4 9 5 11 5 1 1 1 9 6 7 8 10 8 6 10 15 14 15 17 17 16 12 10 9 9 9 5 6 4 4 2 1 1 3 3 3 3 1 3 4 4 5 6 6 6 5 5 7 7 8 8 9 9 10 10 11 12 13 10 9 9 11 12 13 12 12 12 12 13 14 16 17 16 16 16 17 16 13 11 10 11 11 9 9 7 8 9 10 14 11 12 13 14
3 1 1 9 3 4 8 2 3 1 1 4 4 10 7 9 8 11 11 14 7 8 7 8 11 14 13 12 11 9 7 6 6 5 3 0 0 0 1 2 2 2 3 4 5 6 5 5 5 6 6 6 7 7 8 8 10 11 10 11 12 11 14 14 14 12 11 12 16 11 10 11 12 13 14 15 15 16 16 17 16 14 14 12 12 12 11 10 8 7 7 9 11 15 11 14 13
3 4 5 7 6 6 7 5 4 4 5 2 7 12 8 10 15 13 2 2 4 6 5 6 7 7 9 8 7 7 10 7 6 4 2 1 1 0 1 1 2 4 4 4 4 4 3 4 5 5 5 6 5 7 8 9 10 10 10 11 8 10 8 8 10 12 13 12 11 9 12 14 11 12 14 15 16 16 16 17 17 17 16 15 12 11 11 11 9 7 8 9 9 11 15 12 15
4 6 10 10 7 7 6 3 5 5 5 4 3 10 2 4 8 12 1 2 6 5 11 12 12 9 9 9 9 7 6 6 8 6 5 4 2 1 2 2 4 3 2 2 2 2 3 3 4 5 4 5 6 7 8 9 9 10 12 13 16 16 15 12 11 14 15 15 15 13 12 12 15 15 14 14 14 14 14 17 17 18 17 14 12 12 11 9 7 8 8 7 10 10 12 13 15
1 7 3 7 6 3 2 4 4 5 2 2 2 4 12 2 3 8 6 7 11 4 11 12 11 11 10 9 9 9 8 5 3 2 3 3 1 0 2 2 2 2 2 2 2 2 3 3 4 4 5 5 6 6 8 8 9 9 9 10 10 10 13 13 12 12 11 13 11 14 13 12 13 14 12 10 13 14 16 15 15 16 16 15 13 12 11 10 9 8 7 7 8 8 10 13 15
5 2 3 4 2 2 2 0 3 6 0 6 2 4 10 13 9 9 10 12 11 9 11 12 13 12 11 9 9 9 8 7 7 5 5 4 2 3 2 2 2 3 3 1 2 2 3 4 4 5 5 5 5 6 6 6 8 10 11 10 9 9 10 14 15 15 16 12 14 14 13 13 12 12 12 13 12 15 15 15 15 13 13 14 14 13 13 12 9 7 7 8 8 7 9 11 13
4 1 2 0 1 3 1 2 5 1 3 11 3 4 4 8 6 2 7 7 9 15 15 16 16 14 11 11 11 10 9 8 7 6 5 5 5 4 5 3 4 4 3 2 2 2 2 3 3 4 6 5 6 6 6 6 7 9 10 10 12 10 10 12 12 14 14 13 14 13 13 13 12 12 12 12 13 14 15 15 13 13 12 13 13 14 13 14 13 10 8 7 6 7 7 10 11
2 3 1 1 0 0 2 3 1 2 2 12 8 8 5 15 6 2 0 6 13 16 19 19 18 15 12 12 10 9 7 6 5 7 6 6 5 4 4 4 4 4 3 3 2 2 2 1 4 5 7 5 6 6 6 7 7 8 9 11 13 13 12 12 11 13 11 13 15 16 12 13 11 12 11 12 12 13 15 15 14 15 15 13 12 15 16 15 13 10 10 8 7 7 7 10 12
3 4 1 3 3 2 2 3 2 3 4 15 8 12 10 10 5 10 10 12 16 14 8 10 9 8 11 12 12 9 8 6 6 6 6 6 4 4 3 4 4 4 3 3 3 3 1 3 4 5 6 6 6 6 6 7 7 7 8 10 12 14 14 14 14 14 12 14 14 14 14 13 13 11 12 11 12 13 13 14 13 13 14 13 13 15 14 14 14 12 9 8 8 7 6 10 13
2 1 1 5 4 5 2 3 3 1 9 7 4 11 9 8 7 8 12 3 5 13 17 20 19 18 16 13 10 9 8 7 7 6 6 5 3 3 3 4 4 5 4 4 4 2 4 4 4 6 6 5 6 6 6 7 7 8 8 10 12 12 12 12 14 16 16 17 15 15 13 13 12 12 10 12 9 11 11 11 14 14 13 12 14 12 14 16 15 15 10 8 7 6 6 8 11
3 2 3 2 6 6 4 2 3 6 8 1 1 5 4 14 19 4 11 15 7 9 14 19 21 18 15 12 11 9 8 7 7 7 6 4 4 5 4 5 5 4 5 4 3 4 4 4 5 6 9 6 7 6 7 8 7 8 9 10 10 10 11 12 13 15 15 13 14 15 16 13 14 11 13 10 12 12 12 12 12 14 13 11 13 13 14 16 16 15 12 9 8 7 6 8 10
5 3 3 2 3 1 5 5 3 5 5 3 3 2 9 10 11 13 21 16 11 10 13 11 16 19 18 15 10 9 8 8 8 7 6 6 6 5 5 5 5 5 4 2 3 4 4 4 5 7 10 7 8 8 8 8 8 8 9 9 10 10 12 12 11 12 13 11 12 13 13 15 13 15 13 15 12 12 14 13 14 14 14 15 15 15 14 16 17 16 14 11 9 7 6 8 10
8 2 7 7 6 2 7 2 7 11 9 2 4 2 8 1 6 1 7 8 6 11 7 6 10 13 12 9 8 9 8 7 7 7 6 7 6 5 5 5 5 5 2 4 4 4 4 5 6 8 11 10 8 8 8 9 9 9 9 9 9 9 11 11 11 11 11 13 14 14 15 12 14 13 15 11 14 15 15 13 17 14 15 16 13 13 14 15 17 16 12 12 9 7 7 8 8
2 2 4 4 8 5 8 5 3 5 8 7 3 8 5 8 1 2 1 1 1 3 5 9 10 10 10 10 10 10 8 8 7 6 6 5 5 5 5 5 6 1 2 4 5 5 5 5 6 8 10 11 10 10 10 10 10 9 10 10 11 10 10 10 11 11 12 13 14 16 13 16 11 13 15 13 15 14 14 16 16 16 15 13 13 14 14 15 15 16 13 11 10 7 7 7 8
3 5 6 7 1 5 4 2 1 0 2 14 4 9 8 6 5 2 1 3 1 3 6 10 12 12 10 10 9 9 9 8 7 6 6 6 5 5 5 5 2 1 3 4 5 5 5 7 7 10 11 9 9 9 10 10 11 11 12 12 11 12 13 13 13 15 15 14 15 11 12 15 14 13 12 14 16 13 14 15 14 16 14 11 12 13 14 14 16 14 13 12 11 9 8 7 7
7 3 8 1 2 2 3 5 2 1 5 10 4 11 16 6 14 3 1 5 6 6 8 9 10 9 11 10 10 10 9 8 7 7 6 6 6 6 5 3 1 0 3 4 5 5 5 5 7 10 11 12 11 10 10 9 10 11 12 13 13 12 13 13 13 14 12 13 14 11 14 11 14 13 13 13 12 14 14 16 15 14 11 12 13 14 14 14 14 13 13 12 10 9 8 6 6
3 3 2 3 4 2 0 3 5 1 7 8 6 3 19 11 13 3 8 10 12 10 7 8 11 11 12 9 10 9 8 6 6 6 6 6 7 6 3 1 0 2 4 5 4 4 5 5 6 7 10 11 12 11 10 10 9 9 9 11 12 13 13 12 12 15 14 14 13 14 14 13 15 12 14 13 12 15 13 15 14 13 13 13 15 13 14 11 13 14 13 11 10 10 8 7 6
1 0 1 0 1 5 4 6 3 3 9 5 11 3 20 5 7 12 13 17 16 12 10 13 17 16 12 10 11 10 9 7 7 7 7 7 7 4 2 1 2 4 5 4 4 4 6 6 7 8 9 10 10 11 11 12 12 11 11 11 12 12 13 13 14 15 14 16 14 15 14 16 13 14 14 13 13 13 15 14 14 12 14 13 12 13 10 10 12 13 12 11 10 10 9 8 7
3 1 3 1 2 2 1 2 5 5 4 6 10 10 18 6 7 11 13 17 17 18 18 16 15 13 11 11 11 10 9 8 8 8 8 7 4 1 1 2 3 4 4 4 4 5 5 6 7 8 10 12 12 11 10 11 11 12 13 14 13 14 14 15 13 14 15 14 16 14 13 14 14 14 13 13 14 13 15 14 15 12 13 13 13 13 11 10 10 13 12 12 11 10 9 8 6
11 12 12 14 7 4 3 12 4 5 5 8 7 13 23 3 0 8 10 13 15 15 18 18 13 12 13 12 11 10 9 8 8 8 5 4 3 1 2 2 3 4 4 4 4 4 6 7 7 8 10 10 11 12 11 12 11 11 13 13 15 13 14 13 16 17 14 15 12 14 13 13 15 14 12 13 14 13 13 14 13 14 12 12 14 14 14 10 11 12 14 12 11 10 9 8 6
Wind_Direction
324 324 314 142 89 91 63 360 105 335 62 17 86 36 224 333 137 52 31 352 78 265 216 306 23 25 90 133 123 102 41 66 311 121 131 274 322 340 349 337 334 12 18 2 345 354 6 13 17 15 1 9 333 332 335 296 235 247 258 250 260 245 245 245 249 260 283 297 292 276 258 253 267 261 256 259 265 268 264 262 250 249 259 265 263 268 272 276 276 275 273 272 273 275 275 268 265
306 319 13 138 98 81 268 127 100 28 39 52 22 90 214 297 42 112 125 127 191 188 219 194 74 89 114 117 110 76 31 23 6 88 144 306 344 356 347 345 354 33 38 27 25 18 6 2 3 5 4 354 350 343 342 331 306 275 249 244 250 253 258 272 268 242 260 254 252 266 283 291 278 267 270 270 264 260 267 267 259 251 264 270 279 269 269 272 268 264 264 267 266 267 271 266 254
322 352 41 32 34 72 97 38 144 76 86 74 277 187 337 357 111 219 195 167 200 219 122 83 70 64 59 77 49 61 70 15 14 21 81 355 18 341 337 344 9 31 39 33 31 31 30 21 21 15 11 3 1 357 353 351 347 334 327 313 290 258 251 260 266 268 252 242 248 258 260 260 267 277 278 265 265 262 261 262 261 255 259 266 270 273 269 266 266 264 260 257 261 262 260 262 259
358 340 105 70 264 27 72 30 90 123 111 190 86 287 159 183 206 203 224 237 226 146 100 49 59 307 77 46 118 78 91 43 14 341 36 0 343 298 328 356 10 32 36 29 23 20 16 15 23 19 15 15 10 5 360 355 353 345 335 330 321 307 309 299 278 271 270 268 267 263 256 258 266 265 267 272 267 267 275 272 260 256 260 261 262 263 264 264 259 260 261 260 255 253 250 255 254
25 307 96 103 108 350 104 113 130 102 134 194 153 260 244 216 178 198 233 251 293 76 72 119 85 40 80 74 11 64 319 273 29 15 50 357 347 352 358 13 27 36 34 30 30 27 21 15 7 11 10 9 7 6 1 359 355 354 351 340 329 324 293 276 290 287 281 284 283 275 265 259 261 264 262 269 275 272 270 270 272 268 258 261 267 265 261 260 262 266 272 272 265 247 240 244 247
50 51 25 92 140 183 50 44 49 82 217 150 122 225 220 222 157 173 180 299 321 78 77 61 112 156 48 43 27 69 336 58 19 21 47 359 2 19 31 30 37 40 31 31 30 31 25 26 26 21 15 9 5 2 1 357 355 354 355 353 348 338 328 318 300 299 303 297 294 294 289 280 272 273 271 269 272 275 274 269 263 263 257 249 252 259 260 262 263 262 262 266 269 270 246 230 235
328 40 355 23 14 57 135 115 119 145 318 151 173 200 216 227 186 126 172 97 2 58 50 104 110 95 82 147 60 45 24 1 54 330 30 318 41 35 29 36 40 35 29 28 29 28 25 26 26 26 25 22 15 8 4 2 359 356 351 351 355 354 351 343 333 323 316 309 305 298 295 296 286 276 275 267 261 264 266 270 270 265 262 254 239 244 251 258 262 264 264 259 258 261 262 267 246
63 118 301 101 291 52 58 145 159 142 228 157 192 162 238 213 141 103 161 98 319 77 44 108 100 88 41 53 99 353 19 32 62 23 32 39 42 39 38 37 41 32 27 24 24 24 20 24 24 24 23 24 23 21 15 8 4 360 355 351 349 352 356 356 351 341 333 329 324 322 318 309 305 303 292 283 281 279 267 268 276 273 265 255 253 244 242 250 258 262 265 267 262 257 258 256 266
343 94 28 66 51 19 68 99 116 232 65 353 270 231 217 136 117 121 80 116 110 61 94 136 124 82 166 72 69 358 16 352 9 30 33 33 44 39 46 41 41 32 28 27 22 18 22 22 23 22 20 20 22 22 20 16 12 6 0 354 350 348 348 350 349 348 346 343 335 329 321 316 313 310 301 293 278 264 265 266 268 265 268 279 267 256 253 249 252 257 262 264 265 253 242 246 250
12 90 332 114 128 65 76 19 86 192 194 238 180 86 102 118 50 81 129 71 84 89 57 70 76 108 144 82 96 16 357 340 348 31 18 33 41 50 50 43 42 37 30 26 26 20 18 19 24 23 20 18 17 18 17 15 14 11 8 4 358 351 347 342 340 339 339 338 337 335 330 324 316 308 308 309 305 300 293 285 271 266 264 254 267 271 262 259 256 256 258 260 260 257 241 240 246
356 7 138 66 40 103 141 216 126 61 187 328 332 298 263 113 100 67 79 123 119 118 156 91 68 126 115 91 79 74 4 9 17 29 357 19 40 48 52 42 40 39 33 21 19 24 21 21 21 24 22 19 16 15 13 13 12 11 11 9 5 0 354 347 341 336 332 330 327 326 325 324 322 318 314 308 307 304 290 278 278 276 267 267 267 264 269 266 261 260 259 257 256 254 245 240 238
12 360 6 105 112 146 213 136 169 225 303 353 126 312 353 117 105 94 86 95 88 133 123 41 155 145 71 97 29 356 354 14 349 318 340 12 44 43 53 47 40 36 37 27 20 23 21 19 18 19 22 20 17 14 12 9 9 9 9 7 6 4 1 357 352 345 337 330 325 321 319 318 316 315 313 309 307 302 296 290 285 275 268 262 262 265 258 263 262 260 261 260 255 250 238 228 235
110 115 75 79 194 104 152 106 199 187 336 297 148 124 16 52 104 128 107 79 11 66 10 332 151 105 93 88 145 341 27 336 340 340 357 30 38 39 45 45 38 36 30 26 29 18 17 19 17 15 16 18 14 11 9 8 8 8 6 4 3 2 1 358 354 348 344 338 332 323 315 311 310 309 308 308 304 301 303 303 292 280 273 266 262 261 263 261 259 252 251 257 258 254 241 234 231
101 168 125 102 69 113 126 159 42 125 353 240 255 267 33 104 205 150 117 59 7 57 280 294 97 106 99 93 356 357 340 315 324 356 19 35 40 43 39 36 35 33 28 26 25 18 16 13 15 14 16 17 15 9 5 3 4 9 7 3 1 359 359 357 353 350 346 342 335 328 322 315 309 305 304 303 300 300 298 296 296 293 283 273 264 253 257 259 260 257 246 247 253 254 244 234 233
94 138 84 115 10 79 239 124 196 142 190 184 265 122 67 38 99 69 102 108 23 291 225 41 243 44 206 132 177 157 275 300 332 346 30 35 38 41 39 32 31 30 26 26 21 18 13 8 10 9 8 11 11 10 6 357 357 5 6 1 0 359 357 355 352 350 346 340 337 334 327 321 314 307 300 295 294 295 295 294 292 288 285 281 272 259 250 252 251 250 243 242 244 247 246 241 236
147 79 80 89 3 102 276 98 77 104 191 179 305 128 84 38 8 77 333 111 122 356 64 29 10 119 117 110 146 161 193 350 341 346 54 49 35 41 34 28 25 19 23 24 23 15 6 12 7 10 8 8 9 2 358 359 355 360 1 359 356 356 355 353 351 349 345 341 339 338 333 323 317 311 303 297 287 285 289 289 287 287 284 281 275 269 261 256 255 252 244 240 241 241 241 241 237
43 81 50 25 65 94 279 106 120 204 242 249 303 137 125 80 22 65 20 62 79 36 62 17 90 50 88 120 149 148 147 201 299 73 52 41 29 27 22 23 11 13 9 11 15 12 6 11 6 12 11 9 7 1 357 356 352 353 356 355 353 354 352 352 348 347 345 343 344 341 337 332 323 315 310 303 297 289 283 283 281 284 281 278 278 273 267 256 253 251 248 240 239 239 238 237 238
61 64 115 43 185 81 198 162 190 185 121 257 316 115 119 123 119 156 69 45 87 69 74 70 63 70 95 111 128 150 156 112 68 65 53 48 29 30 23 8 12 5 357 360 1 4 6 2 2 2 8 10 6 1 357 355 350 353 355 353 353 351 349 350 348 345 345 347 346 342 335 329 328 323 314 308 303 298 295 291 286 284 283 276 274 272 267 262 257 253 250 244 239 236 235 235 236
86 116 75 166 206 301 153 175 175 107 189 200 271 256 120 145 142 179 87 104 101 78 68 81 91 79 76 85 106 108 125 71 66 70 66 57 46 40 24 6 7 359 358 353 350 358 2 350 356 1 6 3 2 0 357 351 351 350 352 352 350 348 347 348 344 344 347 346 342 338 335 335 331 328 325 318 307 303 300 295 291 287 284 279 270 266 266 263 259 254 250 248 244 238 234 231 228
291 101 32 249 216 119 280 185 163 198 153 157 148 170 95 216 131 133 124 152 128 128 138 85 120 135 131 123 99 102 82 72 65 76 78 76 66 62 40 22 7 3 347 334 327 338 352 359 353 351 360 1 0 352 352 348 347 348 346 347 349 345 345 345 342 341 344 342 339 336 338 338 336 334 328 328 325 321 318 311 302 292 283 278 271 264 262 263 260 256 250 246 246 242 234 230 225
282 64 160 206 204 110 257 186 173 164 143 157 150 29 57 13 125 121 143 105 195 187 179 157 166 153 148 150 141 119 85 80 78 82 87 81 76 74 85 31 7 336 329 319 334 340 346 353 353 342 352 358 355 348 346 342 340 341 338 339 341 340 338 339 339 338 338 337 336 335 337 336 335 334 329 324 325 326 323 318 315 308 306 301 288 272 262 258 257 254 254 250 244 239 234 229 223
92 233 203 182 166 84 222 221 195 135 118 106 104 89 142 263 39 131 155 147 193 188 185 164 143 148 147 149 150 113 96 89 76 73 83 95 86 54 19 1 333 313 321 1 339 332 338 344 348 336 346 346 352 341 337 329 335 333 333 330 331 328 328 329 329 334 332 332 330 332 332 333 333 330 327 326 332 331 327 325 319 320 317 310 300 288 275 260 251 250 248 245 241 235 233 229 225
334 314 306 201 218 131 211 210 243 171 116 95 111 158 59 79 127 347 105 168 176 131 132 141 137 142 144 131 130 115 111 111 108 100 103 97 63 348 355 327 352 345 336 333 324 322 324 335 338 339 337 339 339 328 327 333 330 320 323 325 336 330 330 328 325 326 323 319 323 325 330 329 328 327 326 328 327 326 321 320 317 313 310 307 304 296 287 273 260 252 244 242 240 235 235 231 228
124 230 337 328 168 125 183 189 188 170 110 136 164 95 122 147 119 30 84 58 111 115 125 129 131 128 128 126 141 137 139 139 142 140 122 100 115 345 232 323 311 291 324 313 332 321 327 328 329 336 323 333 328 325 321 325 313 317 318 319 321 315 329 322 320 319 310 308 311 314 319 318 318 320 321 323 322 322 317 315 312 310 306 305 305 299 293 284 270 257 250 241 237 235 233 231 228
136 293 270 279 343 150 199 156 122 96 82 79 59 82 203 187 153 99 115 125 121 122 122 121 125 125 128 126 134 138 133 136 125 136 90 65 59 356 356 277 323 338 358 349 335 343 330 328 334 334 331 330 333 331 336 327 325 323 321 328 330 328 329 324 322 319 314 302 296 299 306 308 309 309 312 312 316 317 314 312 311 308 307 306 308 301 296 291 277 262 253 246 237 233 230 229 227
174 202 183 333 301 312 183 55 102 121 113 69 60 37 26 127 106 51 149 139 134 127 123 132 133 133 134 130 133 130 125 126 128 102 121 236 342 40 12 10 356 15 348 337 346 331 325 331 336 333 329 331 332 338 335 337 334 330 332 334 330 332 329 326 325 324 320 318 309 298 295 290 293 297 299 305 310 307 310 310 308 306 306 307 305 302 302 293 288 279 263 254 247 237 230 226 222
152 201 177 239 277 320 291 183 207 175 131 126 110 126 142 203 77 206 194 163 142 132 138 151 144 139 141 133 131 126 114 120 131 143 51 23 14 42 11 5 19 352 356 352 337 329 319 327 330 330 329 334 339 342 338 336 329 326 323 319 320 321 319 318 318 316 315 316 312 310 301 289 286 288 292 296 297 299 300 303 304 306 303 304 302 299 299 296 292 282 273 265 258 243 236 228 220
79 146 339 328 330 230 242 96 191 162 251 153 120 166 170 204 2 203 170 167 157 146 152 156 152 147 147 147 134 136 117 137 125 106 96 53 43 40 21 25 356 352 7 341 324 312 325 327 328 327 328 332 337 338 336 334 334 328 327 329 327 325 324 323 319 316 315 310 306 304 302 297 291 287 286 292 293 294 293 296 296 299 300 299 299 297 299 300 298 291 279 268 260 258 257 243 224
222 68 306 301 350 8 242 183 212 157 273 154 143 97 177 236 225 167 157 152 159 151 152 159 159 156 154 147 138 129 129 118 102 103 126 130 98 82 40 6 33 3 340 320 311 321 321 320 320 317 324 332 340 341 340 334 332 333 333 333 332 332 331 326 322 320 315 312 308 305 301 296 292 289 288 287 289 285 288 290 292 292 294 298 298 299 300 301 302 299 291 278 260 249 246 247 240
82 51 152 2 357 333 279 140 11 149 248 120 147 290 245 221 242 148 151 155 150 148 158 165 162 158 153 148 146 141 126 107 128 159 147 109 62 46 40 353 7 356 321 313 315 317 307 317 318 324 335 342 342 340 343 341 341 339 339 336 335 335 334 331 328 324 322 320 318 313 306 299 293 289 290 289 284 284 290 288 284 282 286 294 296 298 300 304 302 301 298 292 272 256 249 241 235
164 254 70 126 38 271 302 152 202 185 218 97 86 243 272 278 254 165 157 158 159 160 165 169 164 160 154 154 148 148 175 180 167 134 102 63 59 37 35 349 352 324 308 300 300 300 316 331 335 339 344 350 351 351 350 346 341 339 339 341 341 340 336 332 329 327 326 324 321 315 311 306 301 295 291 287 283 284 287 286 281 279 277 281 291 293 297 299 295 295 297 294 285 264 247 243 237
33 53 305 326 156 280 298 222 155 186 310 103 94 262 252 258 194 177 162 161 162 159 170 170 169 163 164 155 152 159 186 199 188 126 100 100 87 56 36 349 326 315 301 288 300 324 338 338 346 357 359 359 357 351 346 343 342 342 341 339 338 336 328 325 324 323 321 317 312 308 307 303 300 297 292 285 286 288 287 282 279 277 278 278 276 287 294 294 298 295 292 290 288 277 260 249 239
355 67 251 264 182 262 342 292 204 215 196 305 163 237 298 276 172 174 175 164 173 159 173 175 174 172 164 166 170 182 175 178 151 115 110 97 77 70 24 339 319 305 306 320 323 336 343 347 1 7 4 357 352 349 346 343 341 341 340 338 333 329 327 327 327 324 318 316 312 309 310 310 307 299 289 281 279 283 285 282 276 274 274 275 275 275 284 290 293 296 294 290 283 279 269 250 240
313 24 259 205 211 250 255 302 310 202 170 253 249 229 239 232 175 178 179 177 172 172 176 178 177 173 174 175 182 182 172 163 159 167 142 111 85 55 342 287 303 313 312 315 323 345 348 2 12 7 356 353 350 347 345 342 342 340 339 334 332 328 326 328 328 328 324 322 321 320 321 318 313 310 301 290 281 277 277 279 276 273 272 270 270 273 276 284 289 291 294 293 291 283 272 256 240
275 308 314 305 298 211 243 295 272 130 275 221 260 243 264 259 186 188 187 176 181 183 176 174 172 172 179 179 185 188 180 175 185 178 169 148 114 128 278 290 321 345 331 330 348 356 5 12 10 360 356 352 351 348 345 342 339 336 332 330 329 332 332 332 329 322 319 319 317 317 316 310 305 302 301 297 287 281 276 273 273 271 269 266 265 270 278 282 287 291 293 296 293 285 277 262 242
244 232 235 223 281 272 208 237 273 173 239 242 226 237 250 244 186 196 188 185 187 182 166 173 178 181 178 183 188 186 189 195 198 185 183 180 148 143 323 329 357 353 338 347 1 5 11 14 8 359 354 350 349 349 343 343 342 342 335 332 329 331 324 319 321 310 313 314 313 312 307 304 303 311 313 308 295 286 280 275 272 270 265 258 259 267 274 280 286 295 296 296 296 292 282 272 253
230 156 205 252 241 279 271 245 255 157 251 242 237 242 252 251 202 198 195 170 175 172 181 186 189 183 187 190 190 193 190 198 192 186 185 171 146 110 16 16 9 336 346 350 3 10 17 12 3 356 348 348 348 347 352 350 345 335 330 330 323 322 319 317 312 316 311 310 308 304 306 316 326 322 318 316 311 307 297 286 278 271 261 254 253 258 263 272 276 282 289 289 291 290 282 272 262
207 244 258 278 226 261 270 274 333 298 176 288 270 247 253 253 234 212 186 168 194 186 188 190 188 192 190 188 193 195 203 225 171 203 205 11 38 21 18 25 12 8 340 357 16 13 10 8 1 340 340 343 350 355 348 344 346 340 329 327 325 320 325 323 320 319 313 308 305 311 317 319 315 315 315 312 305 300 299 297 286 274 264 254 254 257 262 261 271 277 288 293 280 281 282 276 269
235 210 262 318 271 250 282 293 283 249 139 265 284 258 252 258 247 219 190 198 202 197 190 188 177 184 189 192 192 198 195 204 194 210 236 246 14 22 24 360 337 327 343 13 10 14 11 7 344 336 335 347 350 351 348 342 337 334 332 319 321 314 306 304 297 304 307 309 314 315 311 311 313 313 309 305 303 300 297 297 292 281 266 259 263 262 256 261 262 273 281 285 295 281 274 275 275
224 232 285 251 236 10 306 300 9 335 192 281 291 274 263 264 257 238 210 203 207 194 193 187 187 181 186 191 188 185 189 191 192 190 178 270 298 32 1 338 303 336 1 11 12 10 6 348 333 340 345 347 344 343 344 336 332 327 321 314 311 306 312 313 310 309 306 311 316 312 307 312 305 301 301 304 307 307 305 303 299 290 279 270 261 261 258 258 261 266 271 277 284 292 283 283 273
272 196 225 261 276 240 206 275 320 286 296 218 276 274 258 226 246 250 221 184 136 177 160 188 218 206 191 195 194 186 183 190 191 205 212 191 67 3 258 268 326 9 360 358 358 354 346 330 328 335 336 338 335 341 342 338 333 329 323 311 295 293 283 284 303 312 316 313 305 310 315 312 305 304 307 306 302 302 302 301 301 298 290 277 264 256 254 253 253 253 264 274 274 282 289 283 281
311 234 205 231 241 265 275 336 12 6 320 317 53 318 272 281 228 254 196 138 201 194 180 196 198 204 202 195 193 205 200 190 176 187 193 180 181 281 331 334 356 345 328 284 274 314 322 317 325 330 332 333 339 341 343 341 337 333 331 333 334 333 325 329 330 325 322 321 318 312 305 310 310 306 297 292 296 304 303 301 299 298 296 287 271 259 256 249 248 254 252 260 272 272 278 283 281
22 270 199 227 232 227 287 329 27 292 247 303 45 235 286 111 231 227 198 197 209 185 201 199 199 203 202 193 192 194 195 205 217 180 158 138 235 173 305 312 291 275 264 250 284 309 317 314 322 329 334 337 340 339 342 340 332 329 325 319 312 312 313 310 312 309 307 307 305 306 306 306 304 297 294 300 307 303 301 297 297 297 298 297 284 268 256 247 246 242 248 251 262 272 277 278 276
236 249 113 107 127 232 246 103 195 248 321 278 223 163 266 286 250 234 194 196 205 202 213 207 205 203 199 193 193 197 196 188 179 196 187 193 193 186 225 246 252 234 240 249 286 291 312 317 327 332 336 336 332 331 331 337 327 324 319 315 307 306 304 302 312 313 310 305 302 301 304 304 301 296 300 302 301 301 301 296 292 294 304 305 298 282 270 261 249 243 239 245 257 263 270 272 278
219 217 128 189 200 230 191 244 259 253 28 288 223 151 271 246 273 332 144 199 226 222 210 210 210 206 195 197 199 200 192 186 174 180 187 196 211 215 212 238 241 242 241 244 259 270 279 304 327 323 328 332 325 326 324 324 322 315 313 313 311 305 300 302 303 304 304 305 300 301 302 300 298 296 294 298 300 300 298 294 299 306 306 303 299 291 277 261 246 242 242 244 246 263 273 276 273
280 158 122 70 83 137 194 237 259 332 71 274 247 171 209 270 201 117 300 235 232 224 213 211 209 199 194 196 202 199 191 183 185 177 186 200 204 210 212 223 253 238 235 235 256 261 273 323 330 330 324 328 322 320 315 312 312 313 311 312 308 307 310 306 304 303 302 306 303 304 304 302 301 300 297 293 296 295 297 301 303 302 300 298 300 300 295 275 253 241 238 239 240 255 265 273 273
124 67 13 349 20 25 46 66 104 54 235 245 229 187 182 286 200 187 160 213 209 216 214 219 214 207 204 200 194 191 180 180 182 192 200 205 210 209 218 230 246 261 249 242 245 251 317 351 333 325 314 316 317 313 311 308 307 307 307 305 303 305 308 308 310 308 307 309 305 304 306 304 301 297 299 295 290 292 293 296 298 298 298 296 299 302 299 289 273 258 242 238 238 246 257 272 274
118 45 65 346 321 9 35 343 45 149 263 256 232 193 189 202 277 218 223 278 218 189 195 201 202 200 197 196 194 186 178 177 185 185 209 219 246 260 256 263 256 249 250 248 251 327 358 344 331 313 308 309 310 308 307 303 303 303 299 298 298 299 303 307 308 306 311 307 307 304 304 301 299 297 293 293 292 292 292 295 299 298 295 298 298 298 299 297 286 269 251 239 238 236 253 267 272
73 69 32 28 283 8 314 42 283 192 228 233 75 128 315 235 244 226 243 240 238 206 202 199 197 192 191 192 187 186 174 174 180 191 202 207 199 225 252 249 255 254 242 253 331 353 338 325 315 310 307 312 306 304 303 301 300 300 300 299 295 297 299 301 299 300 302 302 303 304 304 303 303 298 298 294 295 295 298 298 299 296 297 296 297 296 292 291 287 273 262 244 231 235 239 257 273
115 157 163 84 323 22 259 257 245 299 277 257 102 94 246 265 279 229 239 238 213 214 217 205 187 181 185 184 181 175 177 178 186 192 197 195 203 221 226 238 236 237 244 312 347 339 321 311 307 307 304 310 310 312 309 305 299 297 298 294 295 300 300 298 295 294 295 292 296 295 298 300 300 300 299 297 300 301 296 291 290 290 290 293 291 287 291 296 291 276 258 249 238 226 234 249 262
200 133 146 186 147 196 283 211 266 278 269 276 265 54 232 148 232 296 263 282 234 207 210 180 174 175 170 167 166 173 178 193 189 193 194 197 210 209 224 235 230 229 292 350 339 321 318 311 313 310 310 314 312 307 307 303 299 299 295 291 293 296 295 295 292 291 291 295 296 295 295 293 293 296 296 298 296 291 287 287 290 287 288 285 284 294 297 294 291 280 258 253 244 230 232 247 257
171 164 79 90 227 126 222 204 226 310 332 308 178 213 202 214 205 288 352 13 112 153 136 143 151 156 160 170 177 181 185 190 196 194 204 211 207 218 230 236 222 233 7 338 323 318 315 309 308 306 305 309 311 310 308 302 301 300 297 297 297 295 292 290 291 290 289 290 292 293 291 292 289 290 293 289 290 288 289 289 288 283 281 281 292 294 294 292 287 284 270 255 250 233 233 241 255
212 106 205 209 140 148 280 356 100 43 96 260 157 284 261 312 260 181 105 127 182 137 157 156 163 167 167 178 181 183 187 192 190 196 200 211 219 230 230 219 212 33 352 323 305 305 303 307 311 308 306 303 302 303 302 303 303 306 306 305 303 302 300 297 295 292 293 291 289 285 287 290 289 289 288 294 290 285 284 286 286 287 282 283 292 291 288 286 285 282 268 255 249 242 231 236 248
105 202 238 156 160 107 130 239 312 144 233 274 134 259 277 89 286 71 128 177 197 196 177 174 166 168 180 186 182 184 190 193 194 196 200 201 207 222 230 212 165 227 280 286 292 297 299 300 302 305 308 310 308 306 303 300 302 304 305 306 304 300 297 293 291 292 291 292 289 287 288 285 290 288 290 289 290 290 287 286 283 281 286 294 291 288 289 293 296 287 274 259 253 250 243 234 241
146 187 252 128 236 257 27 85 273 283 253 273 255 240 266 217 250 141 218 196 205 203 188 173 186 192 192 184 188 191 192 189 192 205 208 218 219 225 214 172 270 258 265 265 277 292 295 297 296 296 300 302 305 308 306 303 302 301 301 303 304 304 303 300 294 297 295 293 292 291 290 290 290 289 288 289 288 287 282 279 280 284 288 287 286 283 285 287 287 286 280 268 259 255 250 246 243
58 3 324 149 114 232 146 198 211 128 274 291 281 40 280 129 214 199 202 200 200 185 183 198 199 195 185 184 186 188 191 188 197 203 211 215 222 220 178 156 249 272 279 279 288 296 294 295 299 301 300 302 305 306 308 308 310 307 304 303 301 300 299 298 298 302 297 296 293 292 290 291 287 289 287 283 285 283 284 281 281 280 281 281 278 276 276 284 288 284 279 269 261 256 255 252 254
185 136 257 321 205 237 67 295 170 198 231 245 281 298 271 149 201 181 197 197 199 180 190 200 203 194 189 184 183 188 187 192 199 203 210 219 230 243 221 225 246 263 266 282 287 287 288 295 302 306 307 308 309 308 307 307 308 305 306 307 305 305 302 301 297 295 294 293 294 289 289 287 290 286 288 284 285 284 282 282 278 274 275 277 275 278 282 283 284 282 275 264 256 254 253 256 252
180 175 206 196 166 234 230 259 96 222 202 242 238 256 268 192 267 195 181 201 197 184 189 200 194 187 188 186 187 182 185 196 199 205 203 220 232 222 254 282 271 270 280 288 287 292 300 302 303 309 307 309 312 313 315 311 308 303 303 304 303 300 300 300 302 300 291 294 289 293 291 290 286 288 284 285 283 282 282 276 275 275 276 276 278 280 281 282 280 280 273 264 249 245 246 251 252